Time,TemperatureF,DewpointF,PressureIn,WindDirection,WindDirectionDegrees,WindSpeedMPH,WindSpeedGustMPH,Humidity,HourlyPrecipIn,Conditions,Clouds,dailyrainin,SoftwareType,DateUTC
2014-01-06 00:01:00,32.7,31.4,29.61,SW,225,3.5,3.5,95,0.00,OVC,,0.00,WeatherDisplay:10.37,2014-01-06 05:01:00,
2014-01-06 00:02:00,32.8,31.5,29.61,West,264,3.5,3.5,95,0.00,OVC,,0.00,WeatherDisplay:10.37,2014-01-06 05:02:00,
2014-01-06 00:03:00,32.8,31.5,29.60,WSW,247,3.5,3.5,95,0.00,OVC,,0.00,WeatherDisplay:10.37,2014-01-06 05:03:00,
2014-01-06 00:04:00,32.8,31.5,29.60,SW,231,3.5,3.5,95,0.00,OVC,,0.00,WeatherDisplay:10.37,2014-01-06 05:04:00,
2014-01-06 00:05:00,32.8,31.5,29.60,WSW,256,3.5,3.5,95,0.00,OVC,,0.00,WeatherDisplay:10.37,2014-01-06 05:05:00,
2014-01-06 00:10:00,32.8,31.5,29.60,SW,225,3.5,3.5,95,0.00,OVC,,0.00,WeatherDisplay:10.37,2014-01-06 05:10:00,
2014-01-06 00:15:00,32.9,31.6,29.59,SW,231,5.8,5.8,95,0.00,OVC,,0.00,WeatherDisplay:10.37,2014-01-06 05:15:00,
2014-01-06 00:20:00,32.9,31.6,29.59,SW,224,4.6,4.9,95,0.00,OVC,,0.00,WeatherDisplay:10.37,2014-01-06 05:20:00,
2014-01-06 00:25:00,32.9,31.6,29.59,SW,227,4.6,4.6,95,0.00,OVC,,0.00,WeatherDisplay:10.37,2014-01-06 05:25:00,
2014-01-06 00:30:00,32.9,31.9,29.58,SW,218,3.5,3.5,96,0.00,OVC,,0.00,WeatherDisplay:10.37,2014-01-06 05:30:00,
2014-01-06 00:35:00,33.0,32.0,29.57,SE,146,5.0,5.0,96,0.00,OVC,,0.00,WeatherDisplay:10.37,2014-01-06 05:35:00,
2014-01-06 00:40:00,33.1,32.1,29.56,SW,217,2.0,2.0,96,0.00,OVC,,0.00,WeatherDisplay:10.37,2014-01-06 05:40:00,
2014-01-06 00:45:00,33.2,32.2,29.55,WSW,244,3.5,3.5,96,0.00,OVC,,0.00,WeatherDisplay:10.37,2014-01-06 05:45:00,
2014-01-06 00:50:00,33.4,32.4,29.55,WSW,237,3.5,3.5,96,0.00,OVC,,0.00,WeatherDisplay:10.37,2014-01-06 05:50:00,
2014-01-06 00:55:00,33.6,32.6,29.55,SW,216,4.6,4.6,96,0.00,OVC,,0.00,WeatherDisplay:10.37,2014-01-06 05:55:00,
2014-01-06 01:00:00,33.7,32.7,29.55,SSE,166,2.3,2.6,96,0.00,OVC,,0.00,WeatherDisplay:10.37,2014-01-06 06:00:00,
2014-01-06 01:05:00,33.7,32.7,29.55,SSE,160,5.8,5.8,96,0.00,OVC,,0.00,WeatherDisplay:10.37,2014-01-06 06:05:00,
2014-01-06 01:10:00,33.9,32.9,29.54,ESE,121,8.1,8.1,96,0.00,OVC,,0.00,WeatherDisplay:10.37,2014-01-06 06:10:00,
2014-01-06 01:15:00,34.2,33.2,29.53,West,275,8.1,8.1,96,0.00,OVC,,0.00,WeatherDisplay:10.37,2014-01-06 06:15:00,
2014-01-06 01:20:00,34.6,33.8,29.53,SW,236,3.5,3.5,97,0.00,OVC,,0.00,WeatherDisplay:10.37,2014-01-06 06:20:00,
2014-01-06 01:25:00,34.8,33.8,29.52,South,186,6.0,6.0,96,0.00,OVC,,0.00,WeatherDisplay:10.37,2014-01-06 06:25:00,
2014-01-06 01:30:00,34.9,33.9,29.52,WSW,237,4.0,4.0,96,0.00,OVC,,0.00,WeatherDisplay:10.37,2014-01-06 06:30:00,
2014-01-06 01:35:00,35.2,34.2,29.52,WSW,241,5.8,5.8,96,0.00,OVC,,0.00,WeatherDisplay:10.37,2014-01-06 06:35:00,
2014-01-06 01:40:00,35.1,34.1,29.51,SW,231,4.6,4.6,96,0.00,OVC,,0.00,WeatherDisplay:10.37,2014-01-06 06:40:00,
2014-01-06 01:45:00,35.4,34.4,29.51,SSE,148,3.5,3.5,96,0.00,OVC,,0.00,WeatherDisplay:10.37,2014-01-06 06:45:00,
2014-01-06 01:50:00,35.5,34.5,29.50,SE,146,5.8,5.8,96,0.00,OVC,,0.00,WeatherDisplay:10.37,2014-01-06 06:50:00,
2014-01-06 01:55:00,36.1,35.3,29.49,South,173,3.5,3.5,97,0.00,OVC,,0.00,WeatherDisplay:10.37,2014-01-06 06:55:00,
2014-01-06 02:00:00,36.8,36.0,29.48,SE,143,12.7,12.7,97,0.00,OVC,,0.00,WeatherDisplay:10.37,2014-01-06 07:00:00,
2014-01-06 02:05:00,38.1,37.3,29.49,SE,134,15.0,15.0,97,0.00,-RA,,0.00,WeatherDisplay:10.37,2014-01-06 07:05:00,
2014-01-06 02:10:00,38.9,37.9,29.48,SSE,148,19.6,19.6,96,0.00,-RA,,0.00,WeatherDisplay:10.37,2014-01-06 07:10:00,
2014-01-06 02:15:00,39.5,38.2,29.47,SSE,150,11.5,11.5,95,0.00,-RA,,0.00,WeatherDisplay:10.37,2014-01-06 07:15:00,
2014-01-06 02:20:00,40.1,38.2,29.47,SE,136,15.0,15.0,93,0.00,-RA,,0.00,WeatherDisplay:10.37,2014-01-06 07:20:00,
2014-01-06 02:25:00,40.3,38.2,29.47,SSE,158,9.2,9.2,92,0.00,-RA,,0.00,WeatherDisplay:10.37,2014-01-06 07:25:00,
2014-01-06 02:30:00,40.3,38.2,29.46,SSE,150,8.1,8.1,92,0.00,-RA,,0.00,WeatherDisplay:10.37,2014-01-06 07:30:00,
2014-01-06 02:35:00,40.5,38.4,29.46,SE,142,12.7,12.7,92,0.00,-RA,,0.00,WeatherDisplay:10.37,2014-01-06 07:35:00,
2014-01-06 02:40:00,40.7,38.3,29.45,SSE,158,11.5,11.5,91,0.00,-RA,,0.00,WeatherDisplay:10.37,2014-01-06 07:40:00,
2014-01-06 02:45:00,40.9,38.5,29.45,South,178,10.4,10.4,91,0.00,-RA,,0.00,WeatherDisplay:10.37,2014-01-06 07:45:00,
2014-01-06 02:50:00,40.8,38.1,29.46,West,269,5.8,5.8,90,0.00,-RA,,0.00,WeatherDisplay:10.37,2014-01-06 07:50:00,
2014-01-06 02:55:00,39.1,36.1,29.46,SW,233,6.0,6.0,89,0.00,-RA,,0.00,WeatherDisplay:10.37,2014-01-06 07:55:00,
2014-01-06 03:00:00,37.6,35.5,29.46,SW,215,3.5,3.5,92,0.00,-RA,,0.00,WeatherDisplay:10.37,2014-01-06 08:00:00,
2014-01-06 03:05:00,37.0,35.2,29.45,SW,217,3.5,3.5,93,0.00,-RA,,0.00,WeatherDisplay:10.37,2014-01-06 08:05:00,
2014-01-06 03:10:00,36.6,35.0,29.44,SSW,193,2.3,2.3,94,0.00,-RA,,0.00,WeatherDisplay:10.37,2014-01-06 08:10:00,
2014-01-06 03:15:00,36.7,35.4,29.43,SSE,168,5.8,5.8,95,0.00,-RA,,0.00,WeatherDisplay:10.37,2014-01-06 08:15:00,
2014-01-06 03:20:00,37.1,36.1,29.43,SW,229,3.5,3.5,96,0.00,-RA,,0.00,WeatherDisplay:10.37,2014-01-06 08:20:00,
2014-01-06 03:25:00,37.5,36.5,29.42,SW,218,3.5,3.5,96,0.00,-RA,,0.00,WeatherDisplay:10.37,2014-01-06 08:25:00,
2014-01-06 03:30:00,37.9,37.1,29.40,South,171,6.0,6.0,97,0.00,-RA,,0.00,WeatherDisplay:10.37,2014-01-06 08:30:00,
2014-01-06 03:35:00,38.3,37.5,29.39,SSW,202,5.8,5.8,97,0.00,-RA,,0.00,WeatherDisplay:10.37,2014-01-06 08:35:00,
2014-01-06 03:40:00,38.5,37.5,29.38,SW,224,2.3,2.3,96,0.00,-RA,,0.00,WeatherDisplay:10.37,2014-01-06 08:40:00,
2014-01-06 03:45:00,38.4,37.4,29.38,SW,230,2.3,2.3,96,0.00,-RA,,0.00,WeatherDisplay:10.37,2014-01-06 08:45:00,
2014-01-06 03:50:00,38.4,37.4,29.38,WSW,243,3.5,3.5,96,0.00,-RA,,0.00,WeatherDisplay:10.37,2014-01-06 08:50:00,
2014-01-06 03:55:00,38.2,37.2,29.38,SW,225,4.0,5.4,96,0.00,-RA,,0.00,WeatherDisplay:10.37,2014-01-06 08:55:00,
2014-01-06 04:00:00,38.2,37.2,29.38,SW,216,5.8,5.8,96,0.00,-RA,,0.00,WeatherDisplay:10.37,2014-01-06 09:00:00,
2014-01-06 04:05:00,38.3,37.3,29.37,South,186,2.3,2.3,96,0.00,OVC,,0.00,WeatherDisplay:10.37,2014-01-06 09:05:00,
2014-01-06 04:10:00,38.3,37.3,29.36,SSE,147,4.6,4.6,96,0.00,OVC,,0.00,WeatherDisplay:10.37,2014-01-06 09:10:00,
2014-01-06 04:15:00,38.4,37.4,29.34,South,174,6.9,6.9,96,0.00,OVC,,0.00,WeatherDisplay:10.37,2014-01-06 09:15:00,
2014-01-06 04:20:00,38.4,37.4,29.33,SSE,167,3.5,3.5,96,0.00,OVC,,0.00,WeatherDisplay:10.37,2014-01-06 09:20:00,
2014-01-06 04:25:00,38.9,38.1,29.33,SW,228,6.9,6.9,97,0.00,OVC,,0.00,WeatherDisplay:10.37,2014-01-06 09:25:00,
2014-01-06 04:30:00,39.3,38.5,29.32,WSW,256,2.3,2.3,97,0.00,OVC,,0.00,WeatherDisplay:10.37,2014-01-06 09:30:00,
2014-01-06 04:35:00,39.7,38.9,29.31,West,271,3.5,3.5,97,0.00,OVC,,0.00,WeatherDisplay:10.37,2014-01-06 09:35:00,
2014-01-06 04:40:00,39.4,38.4,29.31,WSW,237,4.0,4.0,96,0.00,OVC,,0.00,WeatherDisplay:10.37,2014-01-06 09:40:00,
2014-01-06 04:45:00,39.4,38.4,29.30,WSW,257,6.0,6.0,96,0.00,OVC,,0.00,WeatherDisplay:10.37,2014-01-06 09:45:00,
2014-01-06 04:50:00,39.3,38.3,29.30,SW,234,3.5,3.5,96,0.00,OVC,,0.00,WeatherDisplay:10.37,2014-01-06 09:50:00,
2014-01-06 04:55:00,39.1,38.1,29.29,SW,218,4.6,4.6,96,0.00,OVC,,0.00,WeatherDisplay:10.37,2014-01-06 09:55:00,
2014-01-06 05:00:00,39.0,38.0,29.28,WSW,256,4.6,4.6,96,0.00,OVC,,0.00,WeatherDisplay:10.37,2014-01-06 10:00:00,
2014-01-06 05:05:00,38.9,37.9,29.28,SW,231,3.5,3.5,96,0.00,OVC,,0.00,WeatherDisplay:10.37,2014-01-06 10:05:00,
2014-01-06 05:10:00,39.1,38.1,29.28,WSW,238,4.6,4.6,96,0.00,OVC,,0.01,WeatherDisplay:10.37,2014-01-06 10:10:00,
2014-01-06 05:15:00,39.5,38.7,29.28,SSW,212,3.5,3.5,97,0.02,RA,,0.02,WeatherDisplay:10.37,2014-01-06 10:15:00,
2014-01-06 05:20:00,39.4,38.4,29.27,SW,229,1.2,0.0,96,0.03,RA,,0.03,WeatherDisplay:10.37,2014-01-06 10:20:00,
2014-01-06 05:25:00,39.3,38.3,29.27,SE,134,2.0,2.0,96,0.04,RA,,0.04,WeatherDisplay:10.37,2014-01-06 10:25:00,
2014-01-06 05:30:00,39.5,38.5,29.26,SSE,154,3.5,3.5,96,0.05,RA,,0.05,WeatherDisplay:10.37,2014-01-06 10:30:00,
2014-01-06 05:35:00,39.7,38.7,29.25,South,172,2.3,2.3,96,0.06,RA,,0.06,WeatherDisplay:10.37,2014-01-06 10:35:00,
2014-01-06 05:40:00,39.7,38.7,29.25,SSE,148,1.2,0.0,96,0.07,RA,,0.07,WeatherDisplay:10.37,2014-01-06 10:40:00,
2014-01-06 05:45:00,39.7,38.7,29.23,SSE,168,1.2,1.2,96,0.08,RA,,0.08,WeatherDisplay:10.37,2014-01-06 10:45:00,
2014-01-06 05:50:00,39.9,39.1,29.23,East,101,2.0,2.0,97,0.09,RA,,0.09,WeatherDisplay:10.37,2014-01-06 10:50:00,
2014-01-06 05:55:00,41.1,40.6,29.22,South,182,7.0,7.0,98,0.11,RA,,0.11,WeatherDisplay:10.37,2014-01-06 10:55:00,
2014-01-06 06:01:00,41.9,41.4,29.22,WSW,238,3.5,3.5,98,0.12,RA,,0.12,WeatherDisplay:10.37,2014-01-06 11:01:00,
2014-01-06 06:06:00,41.7,40.1,29.23,WSW,251,5.8,5.8,94,0.14,RA,,0.14,WeatherDisplay:10.37,2014-01-06 11:06:00,
2014-01-06 06:11:00,40.9,39.6,29.23,WSW,252,4.6,4.6,95,0.14,RA,,0.15,WeatherDisplay:10.37,2014-01-06 11:11:00,
2014-01-06 06:16:00,40.4,39.1,29.23,West,262,4.6,4.6,95,0.14,RA,,0.17,WeatherDisplay:10.37,2014-01-06 11:16:00,
2014-01-06 06:21:00,40.3,39.3,29.22,SW,218,1.2,1.2,96,0.15,RA,,0.18,WeatherDisplay:10.37,2014-01-06 11:21:00,
2014-01-06 06:26:00,40.4,39.4,29.21,SW,227,1.2,1.2,96,0.15,RA,,0.19,WeatherDisplay:10.37,2014-01-06 11:26:00,
2014-01-06 06:31:00,40.6,39.5,29.22,WSW,256,2.3,2.3,96,0.14,RA,,0.19,WeatherDisplay:10.37,2014-01-06 11:31:00,
2014-01-06 06:36:00,40.2,39.2,29.22,SSW,210,0.0,0.0,96,0.14,RA,,0.20,WeatherDisplay:10.37,2014-01-06 11:36:00,
2014-01-06 06:41:00,39.9,38.9,29.21,WSW,255,1.2,1.2,96,0.14,RA,,0.21,WeatherDisplay:10.37,2014-01-06 11:41:00,
2014-01-06 06:46:00,39.7,38.7,29.19,East,89,1.2,0.0,96,0.13,RA,,0.21,WeatherDisplay:10.37,2014-01-06 11:46:00,
2014-01-06 06:51:00,39.7,38.7,29.20,WSW,244,1.2,1.2,96,0.13,RA,,0.22,WeatherDisplay:10.37,2014-01-06 11:51:00,
2014-01-06 06:56:00,39.7,38.7,29.19,NE,51,0.0,0.0,96,0.11,RA,,0.22,WeatherDisplay:10.37,2014-01-06 11:56:00,
2014-01-06 07:01:00,39.6,38.6,29.19,West,271,0.0,0.0,96,0.10,OVC,,0.22,WeatherDisplay:10.37,2014-01-06 12:01:00,
2014-01-06 07:06:00,39.4,38.4,29.18,West,271,0.0,0.0,96,0.09,RA,,0.23,WeatherDisplay:10.37,2014-01-06 12:06:00,
2014-01-06 07:11:00,39.2,38.2,29.18,West,271,0.0,0.0,96,0.08,RA,,0.23,WeatherDisplay:10.37,2014-01-06 12:11:00,
2014-01-06 07:16:00,39.2,38.2,29.18,WSW,243,3.5,3.5,96,0.08,RA,,0.24,WeatherDisplay:10.37,2014-01-06 12:16:00,
2014-01-06 07:21:00,39.4,38.6,29.19,WSW,242,1.2,0.0,97,0.06,RA,,0.24,WeatherDisplay:10.37,2014-01-06 12:21:00,
2014-01-06 07:26:00,39.3,38.5,29.19,WSW,242,0.0,0.1,97,0.06,RA,,0.25,WeatherDisplay:10.37,2014-01-06 12:26:00,
2014-01-06 07:31:00,39.8,39.0,29.18,WSW,251,2.3,2.3,97,0.07,RA,,0.26,WeatherDisplay:10.37,2014-01-06 12:31:00,
2014-01-06 07:36:00,40.1,39.3,29.19,SW,225,2.3,2.3,97,0.06,RA,,0.26,WeatherDisplay:10.37,2014-01-06 12:36:00,
2014-01-06 07:41:00,40.6,40.1,29.18,WSW,240,1.2,1.2,98,0.06,RA,,0.27,WeatherDisplay:10.37,2014-01-06 12:41:00,
2014-01-06 07:46:00,41.5,41.0,29.17,SW,220,1.2,0.0,98,0.07,RA,,0.28,WeatherDisplay:10.37,2014-01-06 12:46:00,
2014-01-06 07:51:00,41.4,40.9,29.17,WSW,248,1.2,1.2,98,0.07,RA,,0.29,WeatherDisplay:10.37,2014-01-06 12:51:00,
2014-01-06 07:56:00,42.3,41.8,29.18,West,269,2.3,2.3,98,0.08,RA,,0.30,WeatherDisplay:10.37,2014-01-06 12:56:00,
2014-01-06 08:01:00,43.3,42.8,29.17,WSW,242,3.5,3.5,98,0.09,RA,,0.31,WeatherDisplay:10.37,2014-01-06 13:01:00,
2014-01-06 08:06:00,43.2,42.7,29.17,West,262,3.5,3.5,98,0.08,RA,,0.32,WeatherDisplay:10.37,2014-01-06 13:06:00,
2014-01-06 08:11:00,43.1,42.6,29.16,SW,236,3.5,3.5,98,0.09,RA,,0.32,WeatherDisplay:10.37,2014-01-06 13:11:00,
2014-01-06 08:16:00,43.4,42.9,29.16,SW,233,1.2,1.2,98,0.10,RA,,0.34,WeatherDisplay:10.37,2014-01-06 13:16:00,
2014-01-06 08:21:00,43.6,43.1,29.16,WSW,239,1.2,1.2,98,0.12,RA,,0.37,WeatherDisplay:10.37,2014-01-06 13:21:00,
2014-01-06 08:26:00,43.9,43.4,29.15,SW,225,2.3,2.3,98,0.14,RA,,0.39,WeatherDisplay:10.37,2014-01-06 13:26:00,
2014-01-06 08:31:00,44.4,43.9,29.13,WSW,238,1.2,0.0,98,0.14,RA,,0.41,WeatherDisplay:10.37,2014-01-06 13:31:00,
2014-01-06 08:36:00,44.9,44.4,29.12,WSW,247,3.5,3.5,98,0.16,RA,,0.42,WeatherDisplay:10.37,2014-01-06 13:36:00,
2014-01-06 08:41:00,45.4,44.9,29.13,WSW,255,2.3,2.3,98,0.16,RA,,0.43,WeatherDisplay:10.37,2014-01-06 13:41:00,
2014-01-06 08:46:00,45.9,45.4,29.13,SW,218,2.3,2.3,98,0.15,RA,,0.43,WeatherDisplay:10.37,2014-01-06 13:46:00,
2014-01-06 08:51:00,46.3,45.8,29.13,SW,234,1.2,1.2,98,0.15,RA,,0.44,WeatherDisplay:10.37,2014-01-06 13:51:00,
2014-01-06 08:56:00,46.6,46.1,29.13,SSE,152,3.5,3.5,98,0.15,RA,,0.45,WeatherDisplay:10.37,2014-01-06 13:56:00,
2014-01-06 09:01:00,47.1,46.6,29.13,SSE,162,4.6,4.6,98,0.15,RA,,0.46,WeatherDisplay:10.37,2014-01-06 14:01:00,
2014-01-06 09:03:00,47.3,46.8,29.14,SSW,213,4.6,4.6,98,0.15,RA,,0.46,WeatherDisplay:10.37,2014-01-06 14:03:00,
2014-01-06 09:08:00,47.5,47.0,29.13,South,186,5.8,5.8,98,0.15,RA,,0.47,WeatherDisplay:10.37,2014-01-06 14:08:00,
2014-01-06 09:13:00,48.1,47.6,29.12,SSW,206,5.8,5.8,98,0.15,RA,,0.48,WeatherDisplay:10.37,2014-01-06 14:13:00,
2014-01-06 09:18:00,48.1,47.6,29.14,SE,139,5.8,5.8,98,0.14,RA,,0.49,WeatherDisplay:10.37,2014-01-06 14:18:00,
2014-01-06 09:23:00,47.9,47.4,29.15,SSW,208,3.5,3.5,98,0.12,RA,,0.49,WeatherDisplay:10.37,2014-01-06 14:23:00,
2014-01-06 09:28:00,47.7,47.2,29.15,SE,131,1.2,1.2,98,0.10,OVC,,0.49,WeatherDisplay:10.37,2014-01-06 14:28:00,
2014-01-06 09:33:00,48.1,47.6,29.16,SW,233,6.0,6.0,98,0.09,RA,,0.50,WeatherDisplay:10.37,2014-01-06 14:33:00,
2014-01-06 09:38:00,47.4,46.6,29.17,SSW,198,3.5,3.5,97,0.11,RA,,0.53,WeatherDisplay:10.37,2014-01-06 14:38:00,
2014-01-06 09:43:00,47.2,46.4,29.15,WSW,254,6.9,6.9,97,0.11,RA,,0.54,WeatherDisplay:10.37,2014-01-06 14:43:00,
2014-01-06 09:48:00,46.9,46.1,29.16,WSW,244,4.0,4.0,97,0.10,RA,,0.54,WeatherDisplay:10.37,2014-01-06 14:48:00,
2014-01-06 09:53:00,46.9,46.1,29.17,SSE,156,2.3,2.3,97,0.10,OVC,,0.54,WeatherDisplay:10.37,2014-01-06 14:53:00,
2014-01-06 09:58:00,46.4,45.6,29.19,South,174,7.0,7.0,97,0.09,OVC,,0.54,WeatherDisplay:10.37,2014-01-06 14:58:00,
2014-01-06 10:03:00,46.0,45.2,29.18,SSE,160,3.5,3.5,97,0.08,-RA,,0.54,WeatherDisplay:10.37,2014-01-06 15:03:00,
2014-01-06 10:08:00,45.7,44.9,29.17,SSE,158,3.5,3.5,97,0.08,-RA,,0.55,WeatherDisplay:10.37,2014-01-06 15:08:00,
2014-01-06 10:13:00,45.8,45.3,29.18,SSW,195,2.3,2.3,98,0.07,-RA,,0.55,WeatherDisplay:10.37,2014-01-06 15:13:00,
2014-01-06 10:18:00,45.4,44.6,29.19,SSW,195,0.0,0.0,97,0.06,-RA,,0.55,WeatherDisplay:10.37,2014-01-06 15:18:00,
2014-01-06 10:23:00,45.4,44.6,29.19,SW,231,0.0,0.0,97,0.07,-RA,,0.56,WeatherDisplay:10.37,2014-01-06 15:23:00,
2014-01-06 10:28:00,45.6,45.1,29.17,SSE,148,1.2,0.0,98,0.07,-RA,,0.56,WeatherDisplay:10.37,2014-01-06 15:28:00,
2014-01-06 10:33:00,45.7,45.2,29.16,SSE,162,3.5,3.5,98,0.06,-RA,,0.57,WeatherDisplay:10.37,2014-01-06 15:33:00,
2014-01-06 10:38:00,45.9,45.4,29.16,South,186,1.2,1.2,98,0.04,-RA,,0.57,WeatherDisplay:10.37,2014-01-06 15:38:00,
2014-01-06 10:43:00,46.1,45.6,29.16,WSW,252,2.3,2.3,98,0.03,-RA,,0.57,WeatherDisplay:10.37,2014-01-06 15:43:00,
2014-01-06 10:48:00,46.1,45.6,29.16,South,190,4.6,4.6,98,0.04,-RA,,0.58,WeatherDisplay:10.37,2014-01-06 15:48:00,
2014-01-06 10:53:00,46.0,45.2,29.17,SSE,167,3.5,3.5,97,0.04,-RA,,0.58,WeatherDisplay:10.37,2014-01-06 15:53:00,
2014-01-06 10:58:00,45.7,44.9,29.17,WSW,254,4.6,4.6,97,0.05,-RA,,0.59,WeatherDisplay:10.37,2014-01-06 15:58:00,
2014-01-06 11:03:00,45.7,44.9,29.17,SW,222,3.5,3.6,97,0.06,-RA,,0.60,WeatherDisplay:10.37,2014-01-06 16:03:00,
2014-01-06 11:08:00,45.8,45.0,29.18,SW,217,3.5,3.5,97,0.06,-RA,,0.61,WeatherDisplay:10.37,2014-01-06 16:08:00,
2014-01-06 11:13:00,45.5,44.4,29.18,SW,225,5.8,5.8,96,0.06,-RA,,0.61,WeatherDisplay:10.37,2014-01-06 16:13:00,
2014-01-06 11:18:00,45.4,44.3,29.18,SW,226,5.8,5.8,96,0.07,-RA,,0.63,WeatherDisplay:10.37,2014-01-06 16:18:00,
2014-01-06 11:23:00,44.7,43.4,29.20,WNW,283,11.5,11.5,95,0.08,-RA,,0.64,WeatherDisplay:10.37,2014-01-06 16:23:00,
2014-01-06 11:28:00,42.0,39.3,29.22,WSW,251,19.6,19.6,90,0.09,-RA,,0.66,WeatherDisplay:10.37,2014-01-06 16:28:00,
2014-01-06 11:33:00,40.0,37.3,29.23,SSW,211,15.0,15.0,90,0.10,-RA,,0.66,WeatherDisplay:10.37,2014-01-06 16:33:00,
2014-01-06 11:38:00,39.0,36.3,29.22,WNW,283,7.0,7.0,90,0.10,-RA,,0.67,WeatherDisplay:10.37,2014-01-06 16:38:00,
2014-01-06 11:43:00,38.4,35.7,29.22,SW,226,5.0,5.0,90,0.11,-RA,,0.68,WeatherDisplay:10.37,2014-01-06 16:43:00,
2014-01-06 11:48:00,37.9,35.2,29.23,WNW,293,9.2,9.2,90,0.11,-RA,,0.69,WeatherDisplay:10.37,2014-01-06 16:48:00,
2014-01-06 11:53:00,37.6,34.9,29.23,SW,226,10.4,10.4,90,0.11,-RA,,0.69,WeatherDisplay:10.37,2014-01-06 16:53:00,
2014-01-06 11:58:00,37.5,34.8,29.22,SW,229,6.0,6.0,90,0.10,-RA,,0.69,WeatherDisplay:10.37,2014-01-06 16:58:00,
2014-01-06 12:03:00,37.5,34.6,29.21,SSW,208,12.7,12.7,89,0.09,-RA,,0.69,WeatherDisplay:10.37,2014-01-06 17:03:00,
2014-01-06 12:08:00,37.5,34.3,29.22,WNW,288,10.4,10.4,88,0.08,-RA,,0.69,WeatherDisplay:10.37,2014-01-06 17:08:00,
2014-01-06 12:13:00,37.5,33.7,29.23,WSW,242,17.3,17.3,86,0.08,-RA,,0.69,WeatherDisplay:10.37,2014-01-06 17:13:00,
2014-01-06 12:18:00,37.5,33.1,29.22,WSW,245,12.7,12.7,84,0.07,-RA,,0.69,WeatherDisplay:10.37,2014-01-06 17:18:00,
2014-01-06 12:23:00,37.5,32.5,29.23,SW,229,15.0,15.0,82,0.05,-RA,,0.69,WeatherDisplay:10.37,2014-01-06 17:23:00,
2014-01-06 12:28:00,37.5,31.6,29.24,WSW,245,17.3,17.3,79,0.04,-RA,,0.69,WeatherDisplay:10.37,2014-01-06 17:28:00,
2014-01-06 12:33:00,37.4,30.8,29.24,West,269,12.7,12.7,77,0.03,-RA,,0.69,WeatherDisplay:10.37,2014-01-06 17:33:00,
2014-01-06 12:38:00,37.3,30.1,29.24,West,279,12.7,12.7,75,0.02,-RA,,0.69,WeatherDisplay:10.37,2014-01-06 17:38:00,
2014-01-06 12:43:00,37.2,29.7,29.25,SSW,193,15.0,15.0,74,0.01,-RA,,0.69,WeatherDisplay:10.37,2014-01-06 17:43:00,
2014-01-06 12:48:00,37.1,29.9,29.24,West,268,11.5,11.5,75,0.00,-RA,,0.69,WeatherDisplay:10.37,2014-01-06 17:48:00,
2014-01-06 12:53:00,37.1,28.9,29.24,SW,221,16.1,16.1,72,0.00,-RA,,0.69,WeatherDisplay:10.37,2014-01-06 17:53:00,
2014-01-06 12:58:00,37.1,28.9,29.24,NW,305,15.0,15.0,72,0.00,-RA,,0.69,WeatherDisplay:10.37,2014-01-06 17:58:00,
2014-01-06 13:03:00,37.0,28.8,29.23,WSW,247,10.4,10.4,72,0.00,BKN,,0.69,WeatherDisplay:10.37,2014-01-06 18:03:00,
2014-01-06 13:08:00,36.9,29.1,29.24,WNW,297,6.9,6.9,73,0.00,BKN,,0.69,WeatherDisplay:10.37,2014-01-06 18:08:00,
2014-01-06 13:13:00,36.8,28.3,29.23,WNW,295,11.5,11.5,71,0.00,BKN,,0.69,WeatherDisplay:10.37,2014-01-06 18:13:00,
2014-01-06 13:18:00,36.8,28.3,29.24,SW,225,6.0,6.0,71,0.00,BKN,,0.69,WeatherDisplay:10.37,2014-01-06 18:18:00,
2014-01-06 13:23:00,36.7,27.8,29.25,West,259,6.9,6.9,70,0.00,BKN,,0.69,WeatherDisplay:10.37,2014-01-06 18:23:00,
2014-01-06 13:28:00,36.6,27.4,29.25,West,270,11.5,11.5,69,0.00,BKN,,0.69,WeatherDisplay:10.37,2014-01-06 18:28:00,
2014-01-06 13:33:00,36.5,27.6,29.25,WSW,256,11.5,11.5,70,0.00,BKN,,0.69,WeatherDisplay:10.37,2014-01-06 18:33:00,
2014-01-06 13:38:00,36.4,27.5,29.25,ESE,117,10.4,10.4,70,0.00,BKN,,0.69,WeatherDisplay:10.37,2014-01-06 18:38:00,
2014-01-06 13:43:00,36.2,26.6,29.26,WSW,255,18.4,18.4,68,0.00,BKN,,0.69,WeatherDisplay:10.37,2014-01-06 18:43:00,
2014-01-06 13:48:00,36.0,26.5,29.26,WSW,248,19.6,19.6,68,0.00,BKN,,0.69,WeatherDisplay:10.37,2014-01-06 18:48:00,
2014-01-06 13:53:00,35.7,25.8,29.27,SW,224,12.7,12.7,67,0.00,BKN,,0.69,WeatherDisplay:10.37,2014-01-06 18:53:00,
2014-01-06 13:58:00,35.6,25.7,29.27,WNW,297,16.1,16.1,67,0.00,BKN,,0.69,WeatherDisplay:10.37,2014-01-06 18:58:00,
2014-01-06 14:03:00,35.4,25.5,29.27,SW,236,15.0,15.0,67,0.00,BKN,,0.69,WeatherDisplay:10.37,2014-01-06 19:03:00,
2014-01-06 14:08:00,35.2,25.3,29.27,WSW,239,13.8,13.8,67,0.00,BKN,,0.69,WeatherDisplay:10.37,2014-01-06 19:08:00,
2014-01-06 14:13:00,35.0,25.5,29.28,WSW,237,16.1,16.1,68,0.00,BKN,,0.69,WeatherDisplay:10.37,2014-01-06 19:13:00,
2014-01-06 14:18:00,35.0,25.1,29.28,SW,234,13.8,13.8,67,0.00,BKN,,0.69,WeatherDisplay:10.37,2014-01-06 19:18:00,
2014-01-06 14:23:00,35.2,25.0,29.28,SSW,199,8.1,8.1,66,0.00,BKN,,0.69,WeatherDisplay:10.37,2014-01-06 19:23:00,
2014-01-06 14:28:00,35.3,24.7,29.29,WSW,245,11.5,11.5,65,0.00,BKN,,0.69,WeatherDisplay:10.37,2014-01-06 19:28:00,
2014-01-06 14:33:00,35.1,24.5,29.29,SW,221,12.0,12.0,65,0.00,BKN,,0.69,WeatherDisplay:10.37,2014-01-06 19:33:00,
2014-01-06 14:38:00,35.0,24.0,29.29,WSW,244,15.0,15.0,64,0.00,BKN,,0.69,WeatherDisplay:10.37,2014-01-06 19:38:00,
2014-01-06 14:43:00,35.0,24.4,29.30,SW,233,8.1,8.1,65,0.00,BKN,,0.69,WeatherDisplay:10.37,2014-01-06 19:43:00,
2014-01-06 14:48:00,35.1,24.1,29.30,SW,223,13.8,13.8,64,0.00,BKN,,0.69,WeatherDisplay:10.37,2014-01-06 19:48:00,
2014-01-06 14:53:00,35.1,24.1,29.30,WSW,240,9.2,9.2,64,0.00,BKN,,0.69,WeatherDisplay:10.37,2014-01-06 19:53:00,
2014-01-06 14:58:00,35.0,23.7,29.30,WSW,258,12.7,12.7,63,0.00,BKN,,0.69,WeatherDisplay:10.37,2014-01-06 19:58:00,
2014-01-06 15:03:00,34.7,23.4,29.30,West,264,17.3,17.3,63,0.00,SCT,,0.69,WeatherDisplay:10.37,2014-01-06 20:03:00,
2014-01-06 15:08:00,34.8,23.9,29.31,SW,226,5.8,5.8,64,0.00,SCT,,0.69,WeatherDisplay:10.37,2014-01-06 20:08:00,
2014-01-06 15:13:00,34.8,24.2,29.31,SW,221,8.1,8.1,65,0.00,SCT,,0.69,WeatherDisplay:10.37,2014-01-06 20:13:00,
2014-01-06 15:18:00,34.6,23.7,29.31,SW,226,5.8,5.8,64,0.00,SCT,,0.69,WeatherDisplay:10.37,2014-01-06 20:18:00,
2014-01-06 15:23:00,34.3,23.4,29.31,SW,236,12.7,12.7,64,0.00,SCT,,0.69,WeatherDisplay:10.37,2014-01-06 20:23:00,
2014-01-06 15:28:00,33.9,23.4,29.32,WNW,283,10.4,10.4,65,0.00,SCT,,0.69,WeatherDisplay:10.37,2014-01-06 20:28:00,
2014-01-06 15:33:00,33.6,23.8,29.32,West,261,4.0,4.0,67,0.00,SCT,,0.69,WeatherDisplay:10.37,2014-01-06 20:33:00,
2014-01-06 15:38:00,33.3,23.2,29.32,WSW,237,10.4,10.4,66,0.00,SCT,,0.69,WeatherDisplay:10.37,2014-01-06 20:38:00,
2014-01-06 15:43:00,33.0,23.2,29.33,WSW,253,6.9,6.9,67,0.00,SCT,,0.69,WeatherDisplay:10.37,2014-01-06 20:43:00,
2014-01-06 15:48:00,32.9,23.1,29.33,West,264,7.0,7.0,67,0.00,SCT,,0.69,WeatherDisplay:10.37,2014-01-06 20:48:00,
2014-01-06 15:53:00,32.7,22.9,29.33,SSW,212,9.2,9.2,67,0.00,SCT,,0.69,WeatherDisplay:10.37,2014-01-06 20:53:00,
2014-01-06 15:58:00,32.6,22.8,29.33,WNW,285,11.5,11.5,67,0.00,SCT,,0.69,WeatherDisplay:10.37,2014-01-06 20:58:00,
2014-01-06 16:03:00,32.3,22.2,29.33,West,277,11.5,11.5,66,0.00,SCT,,0.69,WeatherDisplay:10.37,2014-01-06 21:03:00,
2014-01-06 16:08:00,32.0,21.6,29.33,WSW,257,19.6,19.6,65,0.00,SCT,,0.69,WeatherDisplay:10.37,2014-01-06 21:08:00,
2014-01-06 16:13:00,31.7,20.9,29.34,WSW,250,17.3,17.3,64,0.00,SCT,,0.69,WeatherDisplay:10.37,2014-01-06 21:13:00,
2014-01-06 16:18:00,31.4,21.0,29.34,WSW,244,12.7,12.7,65,0.00,SCT,,0.69,WeatherDisplay:10.37,2014-01-06 21:18:00,
2014-01-06 16:23:00,31.2,20.8,29.34,West,266,11.5,11.5,65,0.00,SCT,,0.69,WeatherDisplay:10.37,2014-01-06 21:23:00,
2014-01-06 16:28:00,31.0,20.6,29.34,SW,216,16.1,16.1,65,0.00,SCT,,0.69,WeatherDisplay:10.37,2014-01-06 21:28:00,
2014-01-06 16:33:00,30.8,20.4,29.34,West,266,13.8,13.8,65,0.00,SCT,,0.69,WeatherDisplay:10.37,2014-01-06 21:33:00,
2014-01-06 16:38:00,30.6,20.9,29.35,WSW,248,5.8,5.8,67,0.00,SCT,,0.69,WeatherDisplay:10.37,2014-01-06 21:38:00,
2014-01-06 16:43:00,30.4,20.4,29.35,WSW,251,9.2,9.2,66,0.00,SCT,,0.69,WeatherDisplay:10.37,2014-01-06 21:43:00,
2014-01-06 16:48:00,30.2,20.2,29.36,WSW,243,5.8,5.8,66,0.00,SCT,,0.69,WeatherDisplay:10.37,2014-01-06 21:48:00,
2014-01-06 16:53:00,30.1,20.1,29.36,West,269,5.8,5.8,66,0.00,SCT,,0.69,WeatherDisplay:10.37,2014-01-06 21:53:00,
2014-01-06 16:58:00,30.0,20.4,29.36,WNW,294,4.6,4.6,67,0.00,SCT,,0.69,WeatherDisplay:10.37,2014-01-06 21:58:00,
2014-01-06 17:03:00,29.9,20.3,29.36,West,268,5.8,5.8,67,0.00,SCT,,0.69,WeatherDisplay:10.37,2014-01-06 22:03:00,
2014-01-06 17:08:00,29.7,19.4,29.37,West,268,11.5,11.5,65,0.00,SCT,,0.69,WeatherDisplay:10.37,2014-01-06 22:08:00,
2014-01-06 17:13:00,29.5,18.1,29.37,West,259,12.0,12.0,62,0.00,SCT,,0.69,WeatherDisplay:10.37,2014-01-06 22:13:00,
2014-01-06 17:18:00,29.3,17.5,29.37,NNW,343,10.4,10.4,61,0.00,SCT,,0.69,WeatherDisplay:10.37,2014-01-06 22:18:00,
2014-01-06 17:23:00,29.1,17.7,29.36,SW,229,8.1,8.1,62,0.00,SCT,,0.69,WeatherDisplay:10.37,2014-01-06 22:23:00,
2014-01-06 17:28:00,29.0,17.6,29.37,West,269,8.1,8.1,62,0.00,SCT,,0.69,WeatherDisplay:10.37,2014-01-06 22:28:00,
2014-01-06 17:33:00,29.0,17.6,29.36,WSW,258,8.1,8.1,62,0.00,SCT,,0.69,WeatherDisplay:10.37,2014-01-06 22:33:00,
2014-01-06 17:38:00,28.9,18.2,29.36,West,259,9.2,9.2,64,0.00,SCT,,0.69,WeatherDisplay:10.37,2014-01-06 22:38:00,
2014-01-06 17:43:00,28.8,18.5,29.36,West,261,8.1,8.1,65,0.00,SCT,,0.69,WeatherDisplay:10.37,2014-01-06 22:43:00,
2014-01-06 17:48:00,28.8,18.5,29.36,WSW,253,12.7,12.7,65,0.00,SCT,,0.69,WeatherDisplay:10.37,2014-01-06 22:48:00,
2014-01-06 17:53:00,28.8,18.1,29.37,WNW,291,6.9,6.9,64,0.00,SCT,,0.69,WeatherDisplay:10.37,2014-01-06 22:53:00,
2014-01-06 17:58:00,28.8,18.1,29.36,West,268,6.9,6.9,64,0.00,SCT,,0.69,WeatherDisplay:10.37,2014-01-06 22:58:00,
2014-01-06 18:03:00,28.7,18.1,29.37,West,265,8.0,8.0,64,0.00,SCT,,0.69,WeatherDisplay:10.37,2014-01-06 23:03:00,
2014-01-06 18:08:00,28.6,18.0,29.37,WSW,243,6.0,6.0,64,0.00,SCT,,0.69,WeatherDisplay:10.37,2014-01-06 23:08:00,
2014-01-06 18:13:00,28.5,18.6,29.37,SW,223,10.0,10.0,66,0.00,SCT,,0.69,WeatherDisplay:10.37,2014-01-06 23:13:00,
2014-01-06 18:18:00,28.3,18.0,29.37,West,268,9.2,9.2,65,0.00,SCT,,0.69,WeatherDisplay:10.37,2014-01-06 23:18:00,
2014-01-06 18:23:00,28.1,18.2,29.37,West,278,15.0,15.0,66,0.00,SCT,,0.69,WeatherDisplay:10.37,2014-01-06 23:23:00,
2014-01-06 18:28:00,28.0,18.5,29.37,West,264,6.0,6.0,67,0.00,SCT,,0.69,WeatherDisplay:10.37,2014-01-06 23:28:00,
2014-01-06 18:33:00,28.0,18.1,29.37,WSW,255,7.0,7.0,66,0.00,SCT,,0.69,WeatherDisplay:10.37,2014-01-06 23:33:00,
2014-01-06 18:38:00,27.7,16.7,29.37,WNW,289,12.7,12.7,63,0.00,SCT,,0.69,WeatherDisplay:10.37,2014-01-06 23:38:00,
2014-01-06 18:43:00,27.5,16.5,29.37,West,276,18.4,18.4,63,0.00,SCT,,0.69,WeatherDisplay:10.37,2014-01-06 23:43:00,
2014-01-06 18:48:00,27.5,16.2,29.38,West,269,6.9,6.9,62,0.00,SCT,,0.69,WeatherDisplay:10.37,2014-01-06 23:48:00,
2014-01-06 18:53:00,27.4,16.4,29.38,West,271,11.5,11.5,63,0.00,SCT,,0.69,WeatherDisplay:10.37,2014-01-06 23:53:00,
2014-01-06 18:58:00,27.3,16.0,29.38,WSW,255,10.4,10.4,62,0.00,SCT,,0.69,WeatherDisplay:10.37,2014-01-06 23:58:00,
2014-01-06 19:03:00,27.2,16.3,29.38,WNW,283,5.8,5.8,63,0.00,BKN,,0.69,WeatherDisplay:10.37,2014-01-07 00:03:00,
2014-01-06 19:08:00,27.1,15.8,29.38,WSW,238,18.4,18.4,62,0.00,BKN,,0.69,WeatherDisplay:10.37,2014-01-07 00:08:00,
2014-01-06 19:13:00,27.0,15.7,29.38,SSW,208,9.0,9.0,62,0.00,BKN,,0.69,WeatherDisplay:10.37,2014-01-07 00:13:00,
2014-01-06 19:18:00,26.9,15.6,29.38,WSW,252,12.0,12.0,62,0.00,BKN,,0.69,WeatherDisplay:10.37,2014-01-07 00:18:00,
2014-01-06 19:23:00,26.8,15.5,29.39,West,276,11.5,11.5,62,0.00,BKN,,0.69,WeatherDisplay:10.37,2014-01-07 00:23:00,
2014-01-06 19:28:00,26.8,15.1,29.39,WNW,283,10.4,10.4,61,0.00,BKN,,0.69,WeatherDisplay:10.37,2014-01-07 00:28:00,
2014-01-06 19:33:00,26.8,15.1,29.39,WSW,237,8.1,8.1,61,0.00,BKN,,0.69,WeatherDisplay:10.37,2014-01-07 00:33:00,
2014-01-06 19:38:00,26.8,15.5,29.40,West,259,8.1,8.1,62,0.00,BKN,,0.69,WeatherDisplay:10.37,2014-01-07 00:38:00,
2014-01-06 19:43:00,26.7,15.4,29.40,SSW,193,10.4,10.4,62,0.00,BKN,,0.69,WeatherDisplay:10.37,2014-01-07 00:43:00,
2014-01-06 19:48:00,26.7,15.4,29.40,WNW,286,11.5,11.5,62,0.00,BKN,,0.69,WeatherDisplay:10.37,2014-01-07 00:48:00,
2014-01-06 19:53:00,26.6,15.3,29.40,West,270,9.2,9.2,62,0.00,BKN,,0.69,WeatherDisplay:10.37,2014-01-07 00:53:00,
2014-01-06 19:58:00,26.6,15.3,29.40,SW,216,11.0,11.0,62,0.00,BKN,,0.69,WeatherDisplay:10.37,2014-01-07 00:58:00,
2014-01-06 20:03:00,26.5,15.2,29.40,WNW,291,3.5,3.5,62,0.00,OVC,,0.69,WeatherDisplay:10.37,2014-01-07 01:03:00,
2014-01-06 20:08:00,26.4,15.1,29.39,North,349,3.0,3.0,62,0.00,OVC,,0.69,WeatherDisplay:10.37,2014-01-07 01:08:00,
2014-01-06 20:13:00,26.3,15.0,29.39,West,269,4.6,4.6,62,0.00,OVC,,0.69,WeatherDisplay:10.37,2014-01-07 01:13:00,
2014-01-06 20:18:00,26.3,15.4,29.39,WSW,240,4.6,4.6,63,0.00,OVC,,0.69,WeatherDisplay:10.37,2014-01-07 01:18:00,
2014-01-06 20:23:00,26.2,15.3,29.39,WNW,293,4.0,4.0,63,0.00,OVC,,0.69,WeatherDisplay:10.37,2014-01-07 01:23:00,
2014-01-06 20:28:00,26.2,15.3,29.39,WSW,243,2.3,2.3,63,0.00,OVC,,0.69,WeatherDisplay:10.37,2014-01-07 01:28:00,
2014-01-06 20:33:00,26.1,14.8,29.39,WSW,253,8.1,8.1,62,0.00,OVC,,0.69,WeatherDisplay:10.37,2014-01-07 01:33:00,
2014-01-06 20:38:00,26.2,14.9,29.39,West,280,4.6,4.6,62,0.00,OVC,,0.69,WeatherDisplay:10.37,2014-01-07 01:38:00,
2014-01-06 20:43:00,26.2,15.3,29.39,West,275,2.3,2.3,63,0.00,OVC,,0.69,WeatherDisplay:10.37,2014-01-07 01:43:00,
2014-01-06 20:48:00,26.2,15.3,29.39,West,272,1.2,1.2,63,0.00,OVC,,0.69,WeatherDisplay:10.37,2014-01-07 01:48:00,
2014-01-06 20:53:00,26.1,15.6,29.39,WNW,287,1.2,1.2,64,0.00,OVC,,0.69,WeatherDisplay:10.37,2014-01-07 01:53:00,
2014-01-06 20:58:00,25.9,15.4,29.38,NW,319,3.5,3.5,64,0.00,OVC,,0.69,WeatherDisplay:10.37,2014-01-07 01:58:00,
2014-01-06 21:03:00,25.8,15.3,29.38,WSW,252,8.1,8.1,64,0.00,OVC,,0.69,WeatherDisplay:10.37,2014-01-07 02:03:00,
2014-01-06 21:08:00,25.8,15.3,29.38,NW,323,6.9,6.9,64,0.00,OVC,,0.69,WeatherDisplay:10.37,2014-01-07 02:08:00,
2014-01-06 21:13:00,25.7,15.2,29.38,West,276,10.4,10.4,64,0.00,OVC,,0.69,WeatherDisplay:10.37,2014-01-07 02:13:00,
2014-01-06 21:18:00,25.7,14.8,29.39,SSW,211,3.5,3.5,63,0.00,OVC,,0.69,WeatherDisplay:10.37,2014-01-07 02:18:00,
2014-01-06 21:23:00,25.7,15.2,29.39,West,278,6.9,6.9,64,0.00,OVC,,0.69,WeatherDisplay:10.37,2014-01-07 02:23:00,
2014-01-06 21:28:00,25.7,14.8,29.39,West,265,8.1,8.1,63,0.00,OVC,,0.69,WeatherDisplay:10.37,2014-01-07 02:28:00,
2014-01-06 21:33:00,25.6,14.7,29.39,West,278,10.0,10.0,63,0.00,OVC,,0.69,WeatherDisplay:10.37,2014-01-07 02:33:00,
2014-01-06 21:38:00,25.5,14.3,29.39,West,274,11.5,11.5,62,0.00,OVC,,0.69,WeatherDisplay:10.37,2014-01-07 02:38:00,
2014-01-06 21:43:00,25.4,14.9,29.39,WNW,289,10.4,10.4,64,0.00,OVC,,0.69,WeatherDisplay:10.37,2014-01-07 02:43:00,
2014-01-06 21:48:00,25.1,16.0,29.40,West,261,10.4,10.4,68,0.00,OVC,,0.69,WeatherDisplay:10.37,2014-01-07 02:48:00,
2014-01-06 21:53:00,24.5,17.7,29.40,West,266,5.8,5.8,75,0.00,OVC,,0.69,WeatherDisplay:10.37,2014-01-07 02:53:00,
2014-01-06 21:58:00,23.8,18.2,29.40,West,260,4.0,4.0,79,0.00,OVC,,0.69,WeatherDisplay:10.37,2014-01-07 02:58:00,
2014-01-06 22:03:00,23.5,17.6,29.40,SW,229,9.2,9.2,78,0.00,OVC,,0.69,WeatherDisplay:10.37,2014-01-07 03:03:00,
2014-01-06 22:08:00,23.6,16.5,29.39,WNW,294,10.4,10.4,74,0.00,OVC,,0.69,WeatherDisplay:10.37,2014-01-07 03:08:00,
2014-01-06 22:13:00,23.8,15.1,29.39,WSW,254,5.0,5.0,69,0.00,OVC,,0.69,WeatherDisplay:10.37,2014-01-07 03:13:00,
2014-01-06 22:18:00,23.8,14.4,29.39,West,259,12.7,12.7,67,0.00,OVC,,0.69,WeatherDisplay:10.37,2014-01-07 03:18:00,
2014-01-06 22:23:00,23.8,14.1,29.40,NNW,328,4.6,4.6,66,0.00,OVC,,0.69,WeatherDisplay:10.37,2014-01-07 03:23:00,
2014-01-06 22:28:00,23.8,13.7,29.40,WNW,297,6.9,6.9,65,0.00,OVC,,0.69,WeatherDisplay:10.37,2014-01-07 03:28:00,
2014-01-06 22:33:00,23.8,14.4,29.40,North,356,9.2,9.2,67,0.00,OVC,,0.69,WeatherDisplay:10.37,2014-01-07 03:33:00,
2014-01-06 22:38:00,23.8,14.4,29.40,WNW,292,3.5,3.5,67,0.00,OVC,,0.69,WeatherDisplay:10.37,2014-01-07 03:38:00,
2014-01-06 22:43:00,23.6,14.6,29.40,WSW,248,9.2,9.2,68,0.00,OVC,,0.69,WeatherDisplay:10.37,2014-01-07 03:43:00,
2014-01-06 22:48:00,23.3,12.6,29.40,WSW,255,11.5,11.5,63,0.00,OVC,,0.69,WeatherDisplay:10.37,2014-01-07 03:48:00,
2014-01-06 22:53:00,23.0,11.9,29.40,West,273,10.4,10.4,62,0.00,OVC,,0.69,WeatherDisplay:10.37,2014-01-07 03:53:00,
2014-01-06 22:58:00,22.6,11.2,29.40,WSW,257,19.6,19.6,61,0.00,OVC,,0.69,WeatherDisplay:10.37,2014-01-07 03:58:00,
2014-01-06 23:03:00,22.1,9.9,29.41,West,272,16.1,16.1,59,0.00,BKN,,0.69,WeatherDisplay:10.37,2014-01-07 04:03:00,
2014-01-06 23:08:00,21.8,10.0,29.41,WSW,240,17.3,17.3,60,0.00,BKN,,0.69,WeatherDisplay:10.37,2014-01-07 04:08:00,
2014-01-06 23:13:00,21.6,10.2,29.42,NNE,30,11.5,11.5,61,0.00,BKN,,0.69,WeatherDisplay:10.37,2014-01-07 04:13:00,
2014-01-06 23:18:00,21.4,10.0,29.42,WSW,252,9.2,9.2,61,0.00,BKN,,0.69,WeatherDisplay:10.37,2014-01-07 04:18:00,
2014-01-06 23:23:00,21.1,9.4,29.42,WNW,295,17.3,17.3,60,0.00,BKN,,0.69,WeatherDisplay:10.37,2014-01-07 04:23:00,
2014-01-06 23:28:00,20.8,9.8,29.42,West,274,12.7,12.7,62,0.00,BKN,,0.69,WeatherDisplay:10.37,2014-01-07 04:28:00,
2014-01-06 23:33:00,20.6,11.0,29.42,North,356,24.2,24.2,66,0.00,BKN,,0.69,WeatherDisplay:10.37,2014-01-07 04:33:00,
2014-01-06 23:38:00,20.1,11.9,29.43,SW,229,18.4,18.4,70,0.00,BKN,,0.69,WeatherDisplay:10.37,2014-01-07 04:38:00,
2014-01-06 23:43:00,19.8,10.9,29.43,NW,323,11.5,11.5,68,0.00,BKN,,0.69,WeatherDisplay:10.37,2014-01-07 04:43:00,
2014-01-06 23:48:00,19.5,8.9,29.43,WSW,258,18.4,18.4,63,0.00,BKN,,0.69,WeatherDisplay:10.37,2014-01-07 04:48:00,
2014-01-06 23:53:00,19.3,7.3,29.43,West,276,15.0,15.0,59,0.00,BKN,,0.69,WeatherDisplay:10.37,2014-01-07 04:53:00,
2014-01-06 23:58:00,19.2,7.2,29.43,WSW,248,12.7,12.7,59,0.00,BKN,,0.69,WeatherDisplay:10.37,2014-01-07 04:58:00,